Doha, Qatar

3:33 AM AST on December 11, 2016 (GMT +0300)
Doha

Weather History for OTBD - November, 2014

Change the Weather History Date:

Sunday, November 2, 2014

  Actual Average Record
Temperature  
Mean Temperature 84 °F -  
Max Temperature 90 °F 84 °F 95 °F (2006)
Min Temperature 78 °F 66 °F 46 °F (2002)
Cooling Degree Days 19    
Growing Degree Days 34 (Base 50)    
Moisture  
Dew Point 67 °F    
Average Humidity 57    
Maximum Humidity 79    
Minimum Humidity 29    
Precipitation  
Precipitation 0.00 in 0.01 in - ()
Sea Level Pressure  
Sea Level Pressure 29.94 in    
Wind  
Wind Speed 9 mph ()    
Max Wind Speed 22 mph    
Max Gust Speed 29 mph    
Visibility 6.4 miles    
Events      
Averages and records for this station are not official NWS values.
T = Trace of Precipitation, MM = Missing Value Source: Averaged Metar Reports

Daily Weather History Graph

Daily Weather History Graph

Search for Another Location

Airport or City:

Trip Planner

Search our weather history database for the weather conditions in past years. The results will help you decide how hot, cold, wet, or windy it might be!

Date:

Astronomy

Nov. 02, 2014 Rise Set
Actual Time 5:41 AM AST 4:52 PM AST
Civil Twilight 5:18 AM AST 5:16 PM AST
Nautical Twilight 4:51 AM AST 5:43 PM AST
Astronomical Twilight 4:24 AM AST 6:10 PM AST
Moon 1:40 PM AST (11/2) 12:50 AM AST (11/2)
Length of Visible Light 11h 57m
Length of Day
11h 10m
Waxing Gibbous, 75% of the Moon is Illuminated
Nov 2
Waxing Gibbous
Nov 7
Full
Nov 14
Last Quarter
Nov 22
New
Nov 29
First Quarter

Hourly Weather History & Observations

Time (AST) Temp. Heat Index Dew Point Humidity Pressure Visibility Wind Dir Wind Speed Gust Speed Precip Events Conditions
12:00 AM 85 °F - 76 °F 67% 29.86 in 6 mi SSE 8.1 mph - -  
12:00 AM 84.2 °F 92.3 °F 75.2 °F 74% 29.83 in - East 8.1 mph - N/A   Clear
12:30 AM 84.2 °F 92.3 °F 75.2 °F 74% 29.86 in - South 3.5 mph - N/A   Clear
1:00 AM 84.2 °F 92.3 °F 75.2 °F 74% 29.83 in - South 4.6 mph - N/A   Clear
1:30 AM 82.4 °F 89.5 °F 75.2 °F 79% 29.86 in - SW 3.5 mph - N/A   Clear
2:00 AM 82.4 °F 89.5 °F 75.2 °F 79% 29.86 in - WNW 6.9 mph - N/A   Clear
2:30 AM 82.4 °F 89.5 °F 75.2 °F 79% 29.86 in - NNW 3.5 mph - N/A   Clear
3:00 AM 82 °F - 73 °F 67% 29.88 in 6 mi NW 9.2 mph - -   Scattered Clouds
3:00 AM 82.4 °F 88.2 °F 73.4 °F 74% 29.86 in 6.2 mi NW 9.2 mph - N/A   Partly Cloudy
3:30 AM 80.6 °F 85.4 °F 73.4 °F 79% 29.89 in 6.2 mi NNW 6.9 mph - N/A   Partly Cloudy
4:00 AM 80.6 °F 85.4 °F 73.4 °F 79% 29.89 in - NNW 6.9 mph - N/A   Clear
4:30 AM 80.6 °F 85.4 °F 73.4 °F 79% 29.89 in 6.2 mi NW 4.6 mph - N/A   Partly Cloudy
5:00 AM 82.4 °F 88.2 °F 73.4 °F 74% 29.89 in 6.2 mi NW 4.6 mph - N/A   Scattered Clouds
5:30 AM 82.4 °F 88.2 °F 73.4 °F 74% 29.89 in 6.2 mi NW 3.5 mph - N/A   Partly Cloudy
6:00 AM 82 °F - 73 °F 67% 29.93 in 6 mi NNW 3.5 mph - -   Scattered Clouds
6:00 AM 82.4 °F 88.2 °F 73.4 °F 74% 29.92 in 6.2 mi NNW 3.5 mph - N/A   Partly Cloudy
6:30 AM 82.4 °F 88.2 °F 73.4 °F 74% 29.92 in - Variable 2.3 mph - N/A   Clear
7:00 AM 84.2 °F 88.4 °F 69.8 °F 62% 29.95 in - WSW 3.5 mph - N/A   Clear
7:30 AM 86.0 °F 90.4 °F 69.8 °F 58% 29.95 in - West 3.5 mph - N/A   Clear
8:00 AM 86.0 °F 91.8 °F 71.6 °F 62% 29.95 in - WNW 5.8 mph - N/A   Clear
8:30 AM 86.0 °F 91.8 °F 71.6 °F 62% 29.98 in 6.2 mi NW 9.2 mph - N/A   Partly Cloudy
9:00 AM 87 °F - 74 °F 57% 29.98 in 6 mi NNW 11.5 mph - -   Scattered Clouds
9:00 AM 87.8 °F 95.6 °F 73.4 °F 62% 29.98 in 6.2 mi NNW 11.5 mph - N/A   Partly Cloudy
10:00 AM 87.8 °F 93.8 °F 71.6 °F 58% 29.98 in 6.2 mi North 16.1 mph - N/A   Partly Cloudy
10:30 AM 89.6 °F 96.2 °F 71.6 °F 55% 29.95 in 6.2 mi North 17.3 mph - N/A   Partly Cloudy
11:00 AM 89.6 °F 93.4 °F 68.0 °F 49% 29.95 in 6.2 mi North 17.3 mph - N/A   Partly Cloudy
11:30 AM 89.6 °F 96.2 °F 71.6 °F 55% 29.95 in 6.2 mi North 17.3 mph - N/A   Partly Cloudy
12:00 PM 90 °F - 70 °F 43% 29.94 in 7 mi North 17.3 mph - -   Scattered Clouds
12:00 PM 89.6 °F 94.7 °F 69.8 °F 52% 29.92 in 6.2 mi North 17.3 mph - N/A   Partly Cloudy
12:30 PM 87.8 °F 93.8 °F 71.6 °F 58% 29.92 in 6.2 mi North 18.4 mph - N/A   Partly Cloudy
1:00 PM 89.6 °F 98.2 °F 73.4 °F 59% 29.92 in 6.2 mi North 17.3 mph - N/A   Partly Cloudy
1:30 PM 87.8 °F 93.8 °F 71.6 °F 58% 29.92 in 6.2 mi North 16.1 mph - N/A   Partly Cloudy
2:00 PM 87.8 °F 93.8 °F 71.6 °F 58% 29.92 in 6.2 mi North 19.6 mph - N/A   Partly Cloudy
2:30 PM 87.8 °F 92.6 °F 69.8 °F 55% 29.92 in 6.2 mi North 19.6 mph - N/A   Partly Cloudy
3:00 PM 89 °F - 64 °F 33% 29.94 in 9 mi North 17.3 mph - -   Scattered Clouds
3:00 PM 89.6 °F 91.1 °F 64.4 °F 43% 29.92 in 6.2 mi North 17.3 mph 28.8 mph N/A   Partly Cloudy
3:30 PM 87.8 °F 89.4 °F 64.4 °F 46% 29.92 in 6.2 mi North 20.7 mph - N/A   Partly Cloudy
4:00 PM 87.8 °F 88.5 °F 62.6 °F 43% 29.95 in 6.2 mi North 21.9 mph - N/A   Partly Cloudy
4:30 PM 86.0 °F 86.6 °F 62.6 °F 45% 29.95 in 6.2 mi North 16.1 mph - N/A   Partly Cloudy
5:00 PM 86.0 °F 84.5 °F 55.4 °F 35% 29.98 in - North 16.1 mph - N/A   Clear
5:30 PM 84.2 °F 83.0 °F 55.4 °F 37% 29.98 in - NNW 13.8 mph - N/A   Clear
6:00 PM 84 °F - 57 °F 29% 29.99 in 7 mi NNW 13.8 mph - -  
6:00 PM 84.2 °F 83.5 °F 57.2 °F 40% 29.98 in - NNW 13.8 mph - N/A   Clear
6:30 PM 82.4 °F 81.7 °F 55.4 °F 39% 29.98 in - NNW 12.7 mph - N/A   Clear
7:00 PM 82.4 °F 82.5 °F 59.0 °F 45% 30.01 in - NNW 11.5 mph - N/A   Clear
7:30 PM 82.4 °F 82.0 °F 57.2 °F 42% 30.01 in - NNW 10.4 mph - N/A   Clear
8:00 PM 82.4 °F 82.0 °F 57.2 °F 42% 30.01 in - NNW 8.1 mph - N/A   Clear
8:30 PM 80.6 °F 80.8 °F 57.2 °F 45% 30.04 in - NNW 8.1 mph - N/A   Clear
9:00 PM 81 °F - 57 °F 33% 30.04 in 10 mi NNW 9.2 mph - -  
9:00 PM 80.6 °F 80.8 °F 57.2 °F 45% 30.04 in - NNW 8.1 mph - N/A   Clear
9:30 PM 80.6 °F 80.8 °F 57.2 °F 45% 30.04 in - NNW 6.9 mph - N/A   Clear
10:00 PM 80.6 °F 80.8 °F 57.2 °F 45% 30.04 in - NNW 6.9 mph - N/A   Clear
11:00 PM 78.8 °F - 57.2 °F 47% 30.04 in - NNW 5.8 mph - N/A   Clear
11:30 PM 80.6 °F 80.8 °F 57.2 °F 45% 30.04 in - NNW 6.9 mph - N/A   Clear